Wind_Speed
45 45 47 47 48 46 45 42 41 40 40 37 39 41 38 37 36 37 37 37 37 36 36 35 36 36 36 35 34 33 33 34 28 25 25 24 24 25 26 29 33 34 38 38
47 48 49 48 47 46 46 44 39 38 37 39 41 41 40 38 40 40 42 43 41 40 40 41 40 40 39 40 39 38 36 35 35 35 30 28 27 27 28 30 32 33 34 36
45 45 44 44 44 44 44 43 40 34 34 36 38 38 37 40 40 40 42 46 47 45 44 45 45 44 44 43 42 43 43 39 37 37 35 38 32 31 32 34 34 32 35 30
42 42 42 41 41 43 43 42 41 40 38 36 36 36 39 42 42 43 43 43 45 47 47 48 47 47 48 48 47 47 47 45 46 43 41 40 40 37 35 35 30 38 32 35
43 44 44 43 43 43 42 42 42 40 40 40 40 40 42 43 45 44 46 48 48 51 50 52 51 53 52 51 50 50 53 53 53 51 50 47 44 41 38 40 33 36 36 33
47 46 45 42 41 43 45 43 43 42 41 42 42 43 43 45 48 49 51 54 55 55 56 58 57 56 55 57 59 61 60 58 59 55 56 55 51 45 43 41 37 37 38 36
46 47 47 47 45 45 43 44 44 43 41 43 44 45 47 50 52 55 56 61 63 61 62 63 63 63 63 62 62 63 63 63 63 62 61 60 56 50 41 41 39 39 37 37
49 48 49 50 50 49 47 45 43 43 42 45 46 48 52 55 58 62 63 63 64 68 68 69 67 65 66 64 59 56 52 43 45 49 50 56 39 43 43 39 38 37 35 36
50 50 51 52 50 47 46 45 43 45 46 48 52 55 58 62 64 66 69 71 73 73 71 68 62 58 56 49 47 42 42 43 41 43 45 46 44 44 47 46 41 38 38 36
49 49 50 50 48 44 46 44 47 47 49 54 58 62 66 68 70 72 72 70 66 64 62 54 46 37 36 34 34 41 34 32 31 30 35 39 38 39 38 38 38 33 35 37
48 49 51 49 45 44 44 47 49 51 54 59 64 68 70 71 67 63 60 57 57 52 47 40 35 34 32 30 26 18 17 16 13 18 25 29 29 26 27 28 34 38 42 38
50 51 50 47 44 45 47 49 51 56 61 64 69 70 65 56 54 53 53 50 46 41 37 34 35 36 34 29 21 17 20 22 20 22 22 26 23 25 28 32 35 38 37 36
51 50 47 43 44 46 47 51 55 60 63 68 66 59 54 51 51 50 48 44 40 33 30 28 26 27 21 13 9 20 28 26 23 22 25 29 29 28 29 26 36 40 38 35
50 49 44 42 45 47 49 52 58 62 66 65 57 52 51 53 53 50 50 46 37 32 29 25 24 24 16 12 9 16 23 28 28 29 30 28 34 36 36 36 30 32 37 35
49 49 43 43 45 48 49 54 58 62 65 55 48 48 49 50 51 52 52 51 43 32 26 23 20 14 14 10 10 11 13 22 21 16 20 26 25 22 26 29 34 30 26 29
49 49 43 43 45 47 50 54 58 62 56 46 43 46 47 48 49 52 54 54 51 41 25 15 13 13 20 17 15 10 13 21 21 14 11 16 20 24 15 11 18 23 28 29
49 49 44 43 45 47 51 54 56 60 49 40 41 44 46 47 49 51 52 54 50 44 37 15 16 22 27 29 23 17 15 18 18 9 11 14 17 15 15 10 4 10 16 19
50 49 45 43 44 46 50 52 54 57 45 39 40 42 43 44 46 46 49 48 48 47 34 22 22 25 29 30 28 21 18 15 14 14 14 17 17 10 11 10 5 2 6 8
49 48 46 44 43 45 47 50 51 55 43 38 38 40 40 42 43 43 42 43 44 45 38 30 27 28 30 31 28 24 19 14 14 14 14 13 11 10 8 7 5 4 3 6
49 47 44 43 42 45 46 48 49 54 43 36 35 38 37 41 43 41 38 38 34 34 32 30 33 34 35 33 32 21 19 17 16 18 16 13 11 9 8 6 5 4 6 3
50 47 42 41 43 46 46 48 49 50 46 38 33 33 34 38 39 41 40 36 34 33 32 29 33 34 36 37 35 31 24 21 21 20 19 19 16 14 11 10 9 11 10 13
50 49 45 42 42 44 45 47 48 49 51 42 34 30 32 36 37 38 37 36 33 35 38 36 36 37 35 34 35 34 31 24 22 22 21 22 22 21 22 22 22 23 25 28
47 46 44 42 42 44 43 46 47 48 46 45 36 31 32 34 36 37 37 36 31 34 33 35 36 37 36 37 35 33 32 28 28 21 24 24 23 23 22 22 26 29 32 34
44 44 42 40 43 43 42 44 45 46 47 47 37 32 33 35 36 37 37 37 38 41 42 40 38 36 36 35 36 36 34 32 29 26 24 21 26 33 35 33 32 33 33 33
44 45 43 40 40 44 43 43 45 45 46 48 39 32 33 34 35 36 37 38 40 42 42 42 41 40 39 39 38 36 34 32 31 30 29 28 27 27 26 31 39 42 43 44
40 40 41 39 39 43 43 42 44 44 44 47 46 37 35 35 35 38 38 37 39 42 43 43 42 42 42 41 41 40 39 37 35 33 32 32 32 31 30 32 33 32 33 37
41 40 40 42 39 42 43 42 45 44 44 45 49 42 36 37 36 40 41 40 40 41 41 42 43 45 45 43 43 42 40 40 40 40 40 39 36 34 33 32 31 31 32 34
Wind_Direction
331 329 326 325 329 325 321 318 317 315 312 306 305 303 305 311 311 305 304 300 296 298 299 299 297 302 303 303 304 303 303 302 305 303 299 294 291 283 277 273 270 268 270 269
330 330 332 335 333 330 328 322 319 319 317 310 309 311 309 313 314 307 301 302 300 297 295 295 292 293 295 295 298 299 298 297 297 294 293 289 287 285 280 280 277 274 277 279
334 337 337 337 335 333 332 327 321 320 317 315 315 314 310 309 310 309 306 304 304 299 297 294 293 293 291 290 289 291 289 291 293 290 288 288 285 281 282 281 280 283 271 277
338 339 335 334 333 332 331 330 324 319 315 313 310 310 311 310 310 309 307 304 302 300 298 294 294 292 291 289 286 285 282 281 286 285 282 277 278 277 281 280 280 278 281 277
339 337 333 334 334 333 329 328 324 317 316 314 313 312 312 310 309 308 306 304 302 301 299 297 295 294 292 288 284 283 282 281 280 277 277 275 274 274 274 276 273 274 277 279
337 337 334 334 335 333 330 328 325 321 320 317 316 315 314 312 309 308 306 304 302 301 299 297 295 292 287 286 285 283 279 277 276 273 272 269 269 270 268 264 266 271 272 274
334 332 331 329 328 328 329 329 327 325 323 320 317 315 313 310 310 310 309 305 304 301 298 295 292 288 285 283 282 282 282 279 276 272 271 269 272 274 269 258 260 263 264 267
332 332 330 329 328 328 329 330 331 329 324 319 318 316 314 314 313 311 308 306 303 300 296 294 291 288 287 285 285 284 284 277 273 273 272 270 266 262 257 254 260 261 261 263
335 333 331 331 331 332 333 332 332 328 325 323 321 320 319 317 316 314 310 306 303 302 299 299 298 298 294 295 288 281 277 278 276 274 271 268 264 264 264 261 258 252 252 255
337 334 333 332 333 334 335 332 331 329 329 327 327 325 323 322 318 313 311 309 307 307 305 306 308 304 298 298 298 301 297 285 278 267 262 263 256 253 258 261 253 246 246 248
337 335 335 337 336 337 337 334 332 332 332 332 329 327 326 322 320 319 318 316 312 313 315 315 310 308 303 303 316 315 311 293 286 264 266 278 278 263 237 232 232 237 247 243
337 337 338 338 339 339 337 336 333 334 336 334 332 329 328 330 330 330 328 327 325 322 321 317 311 308 299 288 290 287 289 287 290 286 287 280 278 274 253 237 220 223 234 235
337 339 341 339 340 339 336 335 337 337 338 337 337 338 341 343 343 345 343 343 340 340 336 341 344 345 334 310 248 267 285 283 289 282 279 282 280 269 268 261 241 232 232 238
338 340 342 340 339 340 338 338 338 339 338 339 343 348 353 354 355 355 358 358 351 341 343 348 350 351 11 0 315 278 294 283 282 283 291 283 285 281 267 257 249 242 242 241
338 338 340 338 340 341 339 338 339 340 341 345 351 356 358 0 3 6 7 10 8 359 350 352 358 33 22 0 326 306 324 330 313 300 300 305 307 303 273 265 245 241 235 243
338 337 339 337 339 341 339 338 339 341 347 351 356 358 1 5 6 12 13 14 16 16 8 22 60 23 17 10 10 339 338 351 341 358 358 341 344 345 339 279 258 244 234 237
337 335 338 337 337 340 338 339 341 345 350 355 0 360 4 6 9 11 14 16 14 16 21 56 29 7 359 0 2 352 333 341 344 340 350 340 343 350 359 355 293 232 225 224
334 333 334 337 336 338 337 338 342 350 350 358 3 2 6 7 11 13 13 15 16 15 12 15 4 350 349 352 354 343 343 323 315 315 324 334 347 1 15 10 12 165 205 198
330 331 331 337 334 334 335 338 343 351 350 355 0 3 6 6 9 11 11 11 10 12 10 6 353 346 341 340 337 336 337 305 288 301 316 334 350 352 3 16 10 338 284 210
328 328 329 332 333 333 335 338 344 351 349 350 357 0 2 3 3 5 7 6 3 1 0 359 351 351 353 350 344 323 323 311 306 307 308 318 330 333 317 294 261 225 240 218
325 324 325 326 331 331 335 340 345 347 349 348 350 356 357 359 1 360 358 358 356 354 356 345 350 352 352 349 352 349 318 302 303 294 289 286 287 290 292 272 258 253 257 261
325 324 327 325 326 330 337 340 343 346 352 345 342 345 351 353 356 354 351 351 351 353 353 353 357 356 349 345 342 346 356 340 289 284 284 284 280 275 271 268 263 260 260 275
325 322 324 327 328 330 336 338 341 344 346 347 338 339 343 346 347 350 348 346 345 346 346 349 351 353 349 348 344 339 342 343 353 329 281 273 272 274 267 266 268 269 271 271
326 324 322 324 328 330 334 335 338 340 344 346 337 334 338 340 343 344 342 341 340 343 342 343 344 344 346 343 342 342 340 335 332 328 329 323 282 269 271 271 271 271 272 272
323 325 322 321 323 327 331 332 335 338 340 343 338 329 332 335 337 339 340 339 335 335 334 334 335 337 338 337 336 334 331 330 330 328 324 318 309 301 294 281 272 269 270 273
320 321 323 321 321 325 328 330 333 336 337 339 339 326 323 329 334 335 335 333 330 331 330 328 329 333 333 332 330 328 326 325 322 319 316 315 314 312 306 294 290 289 285 281
322 320 319 319 318 322 325 328 330 332 335 337 336 324 319 322 332 333 333 331 330 329 329 327 328 330 329 327 324 324 321 319 316 313 313 311 307 302 298 297 297 294 288 284
Height
5720 5711 5703 5694 5687 5678 5668 5661 5655 5648 5641 5637 5631 5626 5620 5616 5611 5606 5600 5596 5591 5587 5581 5579 5574 5569 5564 5560 5556 5553 5548 5544 5542 5540 5536 5534 5532 5530 5528 5525 5524 5523 5521 5524
5714 5705 5697 5689 5681 5673 5664 5656 5648 5641 5635 5629 5624 5618 5613 5608 5603 5598 5592 5586 5582 5577 5572 5567 5564 5560 5556 5551 5546 5542 5539 5536 5533 5531 5530 5526 5524 5522 5520 5518 5515 5515 5513 5514
5708 5699 5690 5683 5674 5665 5656 5648 5641 5634 5627 5622 5616 5611 5605 5599 5594 5588 5583 5577 5571 5566 5563 5556 5552 5547 5543 5540 5536 5531 5526 5526 5524 5521 5519 5513 5513 5512 5510 5508 5507 5506 5504 5505
5701 5692 5683 5674 5666 5658 5650 5642 5633 5625 5619 5613 5607 5602 5597 5590 5584 5579 5572 5566 5560 5555 5550 5543 5539 5534 5530 5526 5523 5518 5513 5512 5510 5509 5506 5503 5500 5500 5499 5498 5498 5492 5497 5493
5695 5687 5677 5667 5660 5650 5642 5634 5627 5619 5612 5605 5599 5594 5588 5580 5574 5568 5562 5555 5549 5542 5536 5529 5526 5518 5514 5510 5505 5501 5497 5495 5492 5492 5490 5489 5488 5489 5487 5485 5487 5484 5481 5485
5690 5681 5673 5663 5654 5644 5635 5626 5619 5611 5606 5598 5592 5585 5577 5571 5562 5558 5549 5541 5535 5529 5521 5514 5508 5502 5498 5492 5487 5481 5478 5477 5472 5474 5471 5471 5475 5475 5474 5473 5472 5472 5472 5471
5683 5673 5664 5656 5646 5637 5628 5620 5613 5606 5599 5591 5583 5576 5568 5560 5552 5544 5536 5525 5516 5510 5501 5495 5488 5483 5476 5472 5468 5462 5457 5454 5452 5453 5453 5454 5458 5457 5456 5458 5459 5460 5459 5459
5677 5667 5657 5647 5638 5629 5620 5612 5606 5598 5591 5582 5575 5567 5558 5549 5540 5529 5518 5508 5498 5487 5479 5470 5466 5462 5455 5451 5448 5445 5440 5436 5434 5434 5436 5438 5446 5440 5440 5442 5448 5448 5447 5447
5669 5660 5650 5641 5632 5622 5612 5605 5598 5590 5582 5573 5564 5556 5547 5535 5525 5513 5500 5489 5477 5466 5455 5447 5439 5436 5433 5431 5428 5427 5425 5421 5419 5420 5419 5421 5424 5426 5424 5429 5432 5435 5434 5435
5663 5653 5643 5634 5625 5616 5607 5599 5590 5582 5574 5564 5554 5542 5530 5519 5505 5491 5479 5466 5455 5445 5434 5428 5423 5422 5418 5418 5415 5409 5407 5405 5405 5405 5404 5405 5404 5408 5412 5416 5420 5417 5421 5424
5656 5646 5636 5627 5618 5611 5602 5593 5583 5574 5566 5556 5542 5528 5515 5501 5488 5474 5462 5451 5439 5429 5422 5416 5412 5410 5407 5406 5406 5403 5401 5398 5397 5396 5396 5399 5398 5399 5400 5400 5400 5404 5409 5413
5650 5640 5630 5621 5613 5605 5596 5586 5576 5567 5556 5544 5530 5516 5502 5490 5476 5464 5450 5438 5427 5418 5411 5408 5403 5399 5397 5397 5399 5398 5396 5392 5393 5393 5393 5389 5390 5389 5390 5388 5390 5391 5395 5401
5644 5633 5624 5616 5608 5599 5590 5579 5568 5559 5549 5536 5519 5506 5494 5481 5469 5457 5445 5431 5420 5413 5407 5403 5399 5394 5389 5387 5389 5390 5385 5386 5386 5386 5385 5382 5381 5379 5378 5378 5379 5382 5385 5391
5638 5628 5618 5611 5603 5594 5584 5572 5562 5551 5540 5528 5514 5501 5488 5477 5465 5453 5439 5428 5418 5410 5405 5401 5397 5393 5388 5386 5386 5384 5383 5384 5381 5380 5379 5377 5373 5369 5368 5369 5371 5374 5377 5381
5632 5623 5613 5604 5597 5589 5579 5568 5558 5547 5535 5519 5508 5497 5488 5475 5463 5451 5438 5427 5417 5408 5403 5399 5397 5394 5392 5388 5386 5384 5383 5379 5375 5373 5372 5368 5364 5357 5354 5355 5359 5364 5369 5372
5626 5617 5608 5599 5591 5582 5573 5565 5553 5541 5528 5516 5506 5496 5484 5472 5462 5451 5439 5426 5415 5408 5402 5399 5398 5396 5394 5391 5388 5385 5383 5378 5372 5370 5369 5366 5361 5355 5351 5349 5352 5357 5361 5365
5621 5612 5603 5595 5586 5577 5568 5558 5548 5536 5524 5514 5503 5494 5483 5472 5462 5451 5440 5430 5419 5411 5406 5402 5401 5399 5397 5393 5388 5387 5384 5379 5375 5371 5369 5367 5363 5360 5356 5354 5354 5356 5358 5360
5614 5605 5598 5590 5581 5572 5563 5553 5542 5531 5521 5511 5501 5493 5483 5473 5463 5453 5442 5434 5426 5418 5411 5408 5405 5401 5397 5393 5390 5386 5383 5379 5375 5372 5369 5367 5365 5362 5359 5358 5357 5357 5359 5361
5607 5598 5592 5584 5577 5569 5560 5549 5538 5527 5519 5508 5499 5491 5484 5473 5464 5454 5446 5437 5430 5422 5416 5411 5407 5402 5397 5392 5388 5384 5381 5378 5375 5373 5370 5368 5366 5364 5363 5361 5360 5360 5362 5363
5601 5592 5585 5578 5572 5564 5555 5544 5535 5524 5514 5505 5496 5488 5481 5473 5464 5456 5449 5441 5434 5428 5423 5415 5410 5404 5398 5392 5386 5382 5379 5376 5374 5372 5370 5368 5367 5366 5365 5363 5362 5361 5362 5363
5595 5587 5581 5573 5565 5558 5548 5538 5529 5520 5510 5502 5494 5487 5480 5472 5464 5456 5449 5443 5437 5432 5427 5419 5412 5406 5399 5393 5387 5382 5377 5373 5371 5369 5367 5366 5365 5365 5364 5364 5363 5362 5361 5360
5585 5577 5570 5564 5558 5551 5543 5533 5525 5516 5508 5499 5492 5486 5478 5471 5464 5457 5451 5444 5437 5430 5423 5418 5411 5405 5399 5392 5387 5381 5376 5370 5366 5364 5362 5361 5361 5360 5359 5358 5357 5357 5356 5355
5577 5569 5563 5557 5551 5544 5536 5529 5521 5512 5504 5496 5489 5483 5476 5470 5463 5456 5448 5441 5438 5432 5425 5417 5410 5403 5397 5390 5385 5380 5374 5370 5365 5359 5357 5355 5353 5351 5350 5350 5348 5347 5346 5345
5569 5562 5556 5551 5543 5537 5531 5524 5517 5508 5499 5492 5485 5479 5473 5466 5460 5452 5445 5440 5432 5425 5419 5413 5407 5401 5395 5389 5382 5376 5371 5365 5361 5357 5352 5348 5346 5344 5341 5340 5338 5337 5336 5335
5563 5555 5548 5543 5538 5531 5525 5518 5511 5503 5494 5487 5481 5475 5470 5463 5457 5450 5443 5436 5428 5423 5416 5409 5403 5397 5390 5384 5378 5373 5367 5362 5356 5351 5346 5341 5337 5334 5330 5328 5325 5324 5322 5321
5557 5550 5543 5536 5530 5524 5518 5512 5505 5497 5489 5481 5474 5468 5463 5458 5453 5445 5439 5433 5426 5419 5411 5404 5398 5391 5385 5378 5372 5365 5360 5354 5349 5344 5339 5334 5329 5324 5320 5317 5314 5311 5309 5307
5549 5542 5536 5529 5523 5518 5511 5505 5498 5491 5483 5475 5467 5460 5456 5451 5446 5439 5432 5426 5421 5413 5406 5398 5391 5384 5377 5371 5364 5357 5351 5345 5339 5333 5327 5322 5318 5314 5310 5306 5303 5299 5297 5294